Regional Weather Roundup
Issued by NWS

Home | Current Version | Previous Version | Graphics & Text | Print | Product List | Glossary On
Versions: 1 2 3 4 5 6 7 8 9 10 11 12 13 14 15 16 17 18 19 20 21 22 23 24 25 26 27 28 29 30 31 32 33 34 35 36 37 38 39 40 41 42 43 44 45 46 47 48 49 50
000
ASUS43 KTOP 101408
RWRKS

WEATHER ROUNDUP FOR KANSAS
NATIONAL WEATHER SERVICE GOODLAND KS
800 AM CST SAT DEC 10 2016

NOTE:  "FAIR" INDICATES FEW OR NO CLOUDS BELOW 12,000 FEET WITH NO
SIGNIFICANT WEATHER AND/OR OBSTRUCTIONS TO VISIBILITY.

KSZ001>006-013>018-027>032-041>047-101500-
NORTHWEST KANSAS

CITY           SKY/WX    TMP DP  RH WIND       PRES   REMARKS
GOODLAND       CLOUDY    17  15  92 S6        30.01F
HAYS           CLOUDY    17  13  84 SE12      30.20F WCI   4
HILL CITY      CLOUDY    17  13  84 SE3       30.19F
RUSSELL        CLOUDY    21  14  74 SE12      30.23S WCI   9
$$

KSZ061>065-074>080-084>089-101500-
SOUTHWEST KANSAS

CITY           SKY/WX    TMP DP  RH WIND       PRES   REMARKS
DODGE CITY     CLOUDY    19  15  84 S18       30.13F WCI   4
ELKHART          N/A     22  16  78 NE3         N/A
GARDEN CITY    CLOUDY    17  14  88 S10       30.10F WCI   5
GREAT BEND     CLOUDY    20  15  81 SE14      30.22F WCI   7
LIBERAL        CLOUDY    19  12  73 E8        30.12F
PRATT          CLOUDY    21  14  74 SE9       30.25F
$$

KSZ066>073-081>083-090>101-101500-
SOUTHEAST KANSAS

CITY           SKY/WX    TMP DP  RH WIND       PRES   REMARKS
CHANUTE        CLOUDY    32  20  61 SE5       30.41F
COFFEYVILLE    CLOUDY    34  21  59 SE6       30.42S
HUTCHINSON     CLOUDY    26  16  65 SE12      30.28F WCI  16
MEDICINE LODGE   N/A     21  14  74 E6        30.29F
NEWTON         CLOUDY    22  16  78 SE12      30.32F WCI  10
PARSONS        CLOUDY    34  20  56 SE3       30.42F
WICHITA INTL   CLOUDY    27  18  69 SE6       30.33F
WICHITA JABRA  CLOUDY    24  18  77 E5        30.33F
WICHITA MCCONL CLOUDY    26  17  70 SE7       30.33F
WINFIELD       CLOUDY    31  19  61 SE6       30.35F
$$

KSZ007>012-019>026-033>040-048>060-102>105-101500-
NORTHEAST KANSAS

CITY           SKY/WX    TMP DP  RH WIND       PRES   REMARKS
CONCORDIA      CLOUDY    23  18  81 SE7       30.32S
EMPORIA        MOCLDY    26  18  71 SE8       30.37F
LAWRENCE       CLOUDY    26  19  74 E6        30.42F
MANHATTAN      CLOUDY    27  17  66 E5        30.36F
MARYSVILLE     CLOUDY    27  18  69 SE7       30.36S
OLATHE IND     CLOUDY    27  17  66 SE7       30.41F
OLATHE EXE     CLOUDY    25  16  68 SE6       30.41F
SALINA         CLOUDY    24  16  71 SE10      30.31F WCI  14
TOPEKA BILLARD CLOUDY    27  19  72 E6        30.40F
TOPEKA FORBES  CLOUDY    27  19  72 SE5       30.39F
$$




USA.gov is the U.S. government's official web portal to all federal, state and local government web resources and services.